TimeCDT,TemperatureF,Dew PointF,Humidity,Sea Level PressureIn,VisibilityMPH,Wind Direction,Wind SpeedMPH,Gust SpeedMPH,PrecipitationIn,Events,Conditions,WindDirDegrees,DateUTC
12:15 AM,75.4,48.6,39,29.95,10.0,SE,11.5,-,N/A,,Clear,140,2012-09-25 05:15:00
12:35 AM,75.0,49.1,40,29.95,10.0,SE,12.7,-,N/A,,Clear,140,2012-09-25 05:35:00
12:55 AM,74.5,49.1,41,29.95,10.0,SE,9.2,-,N/A,,Clear,140,2012-09-25 05:55:00
1:15 AM,73.4,49.5,43,29.93,10.0,SE,9.2,-,N/A,,Clear,140,2012-09-25 06:15:00
1:35 AM,72.5,49.3,44,29.93,10.0,SSE,8.1,-,N/A,,Clear,150,2012-09-25 06:35:00
1:55 AM,72.0,49.1,44,29.93,10.0,SSE,6.9,-,N/A,,Clear,160,2012-09-25 06:55:00
2:15 AM,70.5,49.1,47,29.93,10.0,SSE,6.9,-,N/A,,Clear,150,2012-09-25 07:15:00
2:35 AM,68.7,49.1,50,29.92,10.0,SE,8.1,-,N/A,,Clear,140,2012-09-25 07:35:00
2:55 AM,67.1,48.7,52,29.92,10.0,SSE,4.6,-,N/A,,Clear,150,2012-09-25 07:55:00
3:15 AM,66.0,48.6,53,29.92,10.0,Calm,Calm,-,N/A,,Clear,0,2012-09-25 08:15:00
3:35 AM,65.5,48.9,55,29.92,10.0,East,4.6,-,N/A,,Clear,100,2012-09-25 08:35:00
3:55 AM,65.3,49.1,56,29.92,10.0,East,3.5,-,N/A,,Clear,80,2012-09-25 08:55:00
4:15 AM,65.5,49.1,55,29.92,10.0,East,3.5,-,N/A,,Clear,90,2012-09-25 09:15:00
4:35 AM,63.1,49.1,60,29.92,10.0,North,3.5,-,N/A,,Clear,350,2012-09-25 09:35:00
4:55 AM,62.2,48.2,60,29.92,10.0,Calm,Calm,-,N/A,,Clear,0,2012-09-25 09:55:00
5:15 AM,62.6,48.2,59,29.91,10.0,North,4.6,-,N/A,,Clear,10,2012-09-25 10:15:00
5:35 AM,62.6,48.7,60,29.91,10.0,NE,4.6,-,N/A,,Clear,50,2012-09-25 10:35:00
5:55 AM,61.7,48.9,63,29.91,10.0,ENE,6.9,-,N/A,,Clear,70,2012-09-25 10:55:00
6:15 AM,61.9,50.0,65,29.91,10.0,East,5.8,-,N/A,,Clear,80,2012-09-25 11:15:00
6:35 AM,61.7,50.0,65,29.92,10.0,ENE,4.6,-,N/A,,Clear,70,2012-09-25 11:35:00
6:55 AM,59.9,49.8,69,29.92,10.0,ENE,5.8,-,N/A,,Clear,60,2012-09-25 11:55:00
7:15 AM,60.4,50.5,70,29.93,10.0,Calm,Calm,-,N/A,,Clear,0,2012-09-25 12:15:00
7:35 AM,60.8,50.5,69,29.93,10.0,Calm,Calm,-,N/A,,Clear,0,2012-09-25 12:35:00
7:55 AM,60.4,50.2,69,29.93,10.0,Calm,Calm,-,N/A,,Clear,0,2012-09-25 12:55:00
8:15 AM,60.4,50.7,70,29.94,10.0,Calm,Calm,-,N/A,,Clear,0,2012-09-25 13:15:00
8:35 AM,62.4,51.8,68,29.95,10.0,Calm,Calm,-,N/A,,Clear,0,2012-09-25 13:35:00
8:55 AM,64.2,52.2,65,29.95,10.0,ESE,4.6,-,N/A,,Clear,120,2012-09-25 13:55:00
9:15 AM,68.5,53.4,58,29.98,10.0,NNW,3.5,-,N/A,,Clear,330,2012-09-25 14:15:00
9:35 AM,70.2,53.2,55,29.98,10.0,NW,8.1,-,N/A,,Clear,310,2012-09-25 14:35:00
9:55 AM,71.2,53.1,53,29.98,10.0,East,3.5,-,N/A,,Clear,90,2012-09-25 14:55:00
10:15 AM,75.0,52.9,46,29.98,10.0,East,3.5,-,N/A,,Clear,100,2012-09-25 15:15:00
10:35 AM,77.4,51.1,40,29.98,10.0,Calm,Calm,-,N/A,,Clear,0,2012-09-25 15:35:00
10:55 AM,79.0,46.9,32,29.99,10.0,WNW,5.8,-,N/A,,Clear,300,2012-09-25 15:55:00
11:15 AM,79.3,48.2,33,29.99,10.0,NW,6.9,-,N/A,,Clear,310,2012-09-25 16:15:00
12:15 PM,81.9,42.3,25,29.98,10.0,WNW,4.6,-,N/A,,Clear,300,2012-09-25 17:15:00
12:35 PM,83.5,42.4,23,29.97,10.0,NNW,6.9,-,N/A,,Clear,330,2012-09-25 17:35:00
1:15 PM,87.6,40.5,19,29.95,10.0,NE,3.5,-,N/A,,Clear,50,2012-09-25 18:15:00
2:55 PM,91.9,34.3,13,29.90,10.0,West,3.5,-,N/A,,Clear,270,2012-09-25 19:55:00
3:55 PM,92.7,34.0,13,29.88,10.0,Calm,Calm,-,N/A,,Clear,0,2012-09-25 20:55:00
4:15 PM,93.0,34.2,13,29.86,10.0,SE,3.5,-,N/A,,Clear,130,2012-09-25 21:15:00
4:35 PM,93.4,34.7,13,29.86,10.0,West,4.6,-,N/A,,Clear,280,2012-09-25 21:35:00
4:55 PM,91.9,34.2,13,29.86,10.0,Calm,Calm,-,N/A,,Clear,0,2012-09-25 21:55:00
5:15 PM,93.7,35.1,13,29.86,10.0,East,4.6,-,N/A,,Clear,100,2012-09-25 22:15:00
5:35 PM,92.3,35.2,13,29.86,10.0,Calm,Calm,-,N/A,,Clear,0,2012-09-25 22:35:00
5:55 PM,93.4,36.0,13,29.85,10.0,Calm,Calm,-,N/A,,Clear,0,2012-09-25 22:55:00
6:35 PM,93.2,35.8,13,29.85,10.0,East,4.6,-,N/A,,Clear,80,2012-09-25 23:35:00
7:15 PM,90.3,36.1,15,29.85,10.0,Calm,Calm,-,N/A,,Clear,0,2012-09-26 00:15:00
7:35 PM,86.9,37.4,17,29.85,10.0,South,3.5,-,N/A,,Clear,180,2012-09-26 00:35:00
7:55 PM,84.2,39.2,20,29.85,10.0,Calm,Calm,-,N/A,,Clear,0,2012-09-26 00:55:00
8:15 PM,81.5,39.9,23,29.85,10.0,ENE,3.5,-,N/A,,Clear,70,2012-09-26 01:15:00
8:55 PM,78.4,45.5,31,29.87,10.0,SE,9.2,-,N/A,,Clear,140,2012-09-26 01:55:00
9:15 PM,79.2,47.5,33,29.88,10.0,SE,11.5,-,N/A,,Clear,140,2012-09-26 02:15:00
9:35 PM,78.4,48.2,34,29.89,10.0,SSE,9.2,-,N/A,,Clear,150,2012-09-26 02:35:00
9:55 PM,77.4,49.8,38,29.90,10.0,SSE,8.1,-,N/A,,Clear,160,2012-09-26 02:55:00
10:15 PM,76.6,50.5,40,29.90,10.0,South,8.1,-,N/A,,Clear,170,2012-09-26 03:15:00
10:35 PM,75.2,50.0,41,29.90,10.0,SSE,6.9,-,N/A,,Clear,160,2012-09-26 03:35:00
10:55 PM,75.2,49.1,40,29.91,10.0,South,8.1,-,N/A,,Clear,170,2012-09-26 03:55:00
11:15 PM,75.2,47.7,38,29.90,10.0,South,9.2,-,N/A,,Clear,180,2012-09-26 04:15:00
11:35 PM,75.2,48.2,38,29.90,10.0,South,8.1,-,N/A,,Clear,180,2012-09-26 04:35:00
11:55 PM,74.7,48.7,40,29.90,10.0,South,8.1,-,N/A,,Clear,170,2012-09-26 04:55:00